7 * 24
多渠道服务支持
XIWANG-5 02(希望五号02星)是中国于2025年12月13日成功发射的国产卫星。作为中国航天领域的最新成果,该卫星承载着特定航天任务,入轨后将按计划开展相关技术试验与应用运行,助力中国卫星技术的持续迭代发展,服务通信、遥感等领域的空间基础设施建设,进一步提升中国航天的综合服务能力。
中国
(CN)
| 数据来源 | 国际轨道数据 | AOE轨道数据 |
| 星历时间 | 2026-09-05T19:01:16+0800 8小时前 查看轨道信息 | 2026-08-30T23:00:00+0800 6天前 查看轨道信息 |
| 半长轴 | 6891.131km | 6891.414km |
| 偏心率 | 0.000617 | 0.0006464 |
| 轨道倾角 | 41.353° | 41.352° |
| 近地点辐角 | 316.452° | 282.443° |
| 升交点赤经 | 23.287° | 56.604° |
| 平近点角 | 43.582° | 202.912° |
| 近地点 | 508.742km | 508.822km |
| 远地点 | 517.246km | 517.732km |
| 周期 | 94.885分钟 | 94.890分钟 |
| 每日圈数 | 15.176341 | 15.175404 |
| 事件ID | 空间交会对象 | 最接近时刻(TCA) | 交会距离 | 交会风险概率(CRP) | 交会风险指数(CRI) | 操作 |
|---|---|---|---|---|---|---|
| CDM_260902-055306-706906-978621 |
XIWANG-5 02
(67069)
KUIPER-00639
(69786) | 2026-09-02T 05:53:09+0000 |
1.710 km
极远距离 | 3.0437E-6 低风险 | 0.45 | |
| CDM_260831-103506-669106-706923 |
OBJECT AB
(66691)
XIWANG-5 02
(67069) | 2026-08-31T 10:35:26+0000 |
2.639 km
极远距离 | 1.388593E-6 低风险 | 0.38 | |
| CDM_260906-050803-773506-706922 |
CZ-2C DEB
(37735)
XIWANG-5 02
(67069) | 2026-09-06T 05:08:12+0000 |
2.902 km
极远距离 | 1.366366E-6 低风险 | 0.38 | |
| CDM_260907-012706-189606-706923 |
OBJECT C
(61896)
XIWANG-5 02
(67069) | 2026-09-07T 01:27:38+0000 |
2.549 km
极远距离 | 1.281283E-6 低风险 | 0.37 |